Яптик-Сале

Россия / Ямало-Ненецкий автономный округ     69°23′08″N   72°31′33″E
темп.,
°C
ветер,
м/с
пор.,
м/с
влажн.,
%
обл.,
%
осадки,
мм/ч
давл.,
гПа
погр.,
м
16 мая, вс
вс1623:00−13з339978 0.0 102220
02:00−14з339872 0.0 102231
05:00−12з349878 0.0 102249
08:00−8з23945 0.0 102190
11:00−5зюз34885 0.0 1021212
14:00−4зюз348610 0.0 1021365
17:00−4зюз22926 0.0 102156
20:00−9зюз229878 0.0 102018
17 мая, пн
пн1723:00−13зюз2210083 0.0 102010
02:00−15з1110093 0.0 102010
05:00−10з1110091 0.0 102043
08:00−7ссз119757 0.0 102080
11:00−5с11878 0.0 1020159
14:00−3ссв11835 0.0 1020259
17:00−4ссв22885 0.0 102168
20:00−8с22925 0.0 102112
18 мая, вт
вт1823:00−12с229735 0.0 102212
02:00−11с2210094 0.0 102313
05:00−9ссз2299100 0.1 102535
08:00−5ссз349194 0.0 1025153
11:00−3с348641 0.0 1026332
14:00−3ссз33849 0.0 1027277
17:00−4ссз22908 0.0 102871
20:00−8ссз2295100 0.0 102840
19 мая, ср
ср1923:00−10ссз1197100 0.0 102810
02:00−10зсз0096100 0.0 102810
05:00−11ююз1199100 0.0 102917
08:00−5ю3589100 0.0 1027178
11:00−2ю5785100 0.0 1026540
14:00−2ююв71084100 0.0 1023599
17:00−1ююв71186100 0.0 1022667
20:00−2ююв91596100 0.8 1018610
20 мая, чт
чт2023:00−2юв101696100 1.7 1015591
02:00−3юв111896100 1.9 1011561
05:00−2юв101796100 3.5 1009615
08:00−1вюв91596100 1.9 1010651
11:00−1вюв81295100 2.5 1011630
14:00−1вюв7109688 0.3 1013598
17:00−1вюв689382 0.4 1015502
20:00−1вюв4691100 0.1 1017423